AO-07 1 07530U 74089B 23285.58339462 -.00000016 00000-0 18646-3 0 9999 2 07530 101.9606 273.1011 0011997 198.1598 273.0405 12.53667978237886 UO-11 1 14781U 84021B 23285.49374554 .00003668 00000-0 43158-3 0 9994 2 14781 97.6717 257.9990 0008406 164.4257 195.7219 14.85407053111552 AO-16 1 20439U 90005D 23285.76410256 .00000495 00000-0 19707-3 0 9998 2 20439 98.8935 279.0683 0010060 214.8869 319.9400 14.33184312761990 LO-19 1 20442U 90005G 23285.44982651 .00000519 00000-0 20499-3 0 9997 2 20442 98.8585 264.5518 0011431 189.6369 170.4597 14.33338765762146 AO-27 1 22825U 93061C 23285.72982860 .00000307 00000-0 13573-3 0 9992 2 22825 98.8285 330.4449 0009524 86.0856 274.1414 14.30360184567361 IO-26 1 22826U 93061D 23285.56351467 .00000343 00000-0 14849-3 0 9995 2 22826 98.8231 330.1377 0009992 73.5904 286.6376 14.30727304567348 FO-29 1 24278U 96046B 23285.75684865 .00000030 00000-0 63156-4 0 9995 2 24278 98.5454 248.3678 0351163 111.9285 251.9569 13.53156231341087 NOAA-15 1 25338U 98030A 23285.79483514 .00000424 00000-0 19440-3 0 9993 2 25338 98.5977 312.8002 0009799 336.1875 23.8851 14.26409537322028 GO-32 1 25397U 98043D 23285.49980045 .00000314 00000-0 15703-3 0 9996 2 25397 98.8840 244.0445 0001966 125.3863 234.7499 14.23924124312026 ISS 1 25544U 98067A 23285.85765117 .00023524 00000-0 41697-3 0 9996 2 25544 51.6385 105.6913 0004768 97.6239 262.5292 15.50126446420048 NO-44 1 26931U 01043C 23285.62237407 .00000666 00000-0 28414-3 0 9990 2 26931 67.0497 253.5779 0006933 257.4324 102.6002 14.31009061150543 SO-50 1 27607U 02058C 23285.39651455 .00002979 00000-0 42299-3 0 9991 2 27607 64.5541 265.4884 0056037 199.4940 160.4022 14.77751714119542 CO-55 1 27844U 03031E 23285.75687693 .00000861 00000-0 40192-3 0 9997 2 27844 98.6807 291.3144 0010469 140.0207 220.1744 14.22913434 52485 CO-57 1 27848U 03031J 23285.59805928 .00000742 00000-0 35262-3 0 9996 2 27848 98.6843 291.5264 0010093 154.8642 205.3029 14.22405482 52191 RS-22 1 27939U 03042A 23285.87480250 .00003200 00000-0 55607-3 0 9994 2 27939 98.2598 73.8634 0013344 122.3219 6.5496 14.68818045 71811 NOAA-18 1 28654U 05018A 23285.75487049 .00000423 00000-0 25051-3 0 9998 2 28654 98.9007 359.5286 0014894 50.4427 309.8059 14.13028105948174 CO-58 1 28895U 05043F 23285.33980324 .00003873 00000-0 71090-3 0 9997 2 28895 98.1696 56.6448 0017137 65.1005 295.1977 14.66193709957975 CO-65 1 32785U 08021C 23285.50108123 .00008457 00000-0 80883-3 0 9990 2 32785 97.7199 249.1074 0013676 76.2070 284.0671 14.93397822838321 AAUSAT2 1 32788U 08021F 23285.75159746 .00023726 00000-0 15878-2 0 9994 2 32788 97.5726 262.8413 0005657 331.6472 28.4447 15.06911859840894 DO-64 1 32789U 08021G 23285.61292934 .00331014 00000-0 34172-2 0 9997 2 32789 97.2862 307.9203 0005766 94.2077 265.9841 15.63708265845535 CO-66 1 32791U 08021J 23285.81052083 .00014117 00000-0 11825-2 0 9993 2 32791 97.6713 254.7847 0012723 30.1986 329.9968 14.98469199839349 RS-30 1 32953U 08025A 23285.70741911 .00000035 00000-0 18378-3 0 9995 2 32953 82.5012 243.9873 0018388 290.6053 69.3054 12.43130386698259 PRISM 1 33493U 09002B 23285.78243424 .00019639 00000-0 12259-2 0 9996 2 33493 98.2407 308.7635 0015393 18.8446 341.3347 15.09445284801475 NOAA-19 1 33591U 09005A 23285.74340069 .00000377 00000-0 22744-3 0 9997 2 33591 99.0868 333.4800 0012910 272.1403 87.8290 14.12840690756542 SRMSAT 1 37841U 11058D 23285.49637375 .00000718 00000-0 24852-3 0 9992 2 37841 19.9712 220.7341 0011743 240.3246 277.9313 14.10960956619391 HRBE 1 37855U 11061F 23285.59412839 .00050347 00000-0 12834-2 0 9997 2 37855 101.7072 314.2598 0102917 38.9539 321.9045 15.34037426654517 RS-40 1 38735U 12041C 23285.78763887 .00000046 00000-0 26265-3 0 9992 2 38735 82.4762 324.7715 0018002 43.9285 316.3222 12.42596915508420 ZACUBE-1 1 39417U 13066B 23285.44077394 .00008252 00000-0 92511-3 0 9996 2 39417 97.6991 243.1500 0051757 261.4239 98.1111 14.86091027534601 Delfi-N3xt 1 39428U 13066N 23285.53816900 .00007691 00000-0 10717-2 0 9995 2 39428 97.8316 206.2965 0108088 170.9551 189.3640 14.74011763529411 GOMX-1 1 39430U 13066Q 23285.62438222 .00005290 00000-0 90965-3 0 9992 2 39430 97.7614 169.8574 0143235 322.2324 36.8892 14.62460184526691 LO-74 1 39440U 13066AA 23285.41505730 .00008944 00000-0 11227-2 0 9991 2 39440 97.7826 230.4600 0074255 7.2404 352.9862 14.80414722531496 AO-73 1 39444U 13066AE 23285.46231775 .00009160 00000-0 97903-3 0 9992 2 39444 97.6853 245.8390 0049801 244.7867 114.8182 14.88065526533073 SPROUT 1 39770U 14029E 23285.64688657 .00052884 00000-0 33535-2 0 9990 2 39770 97.9986 56.9469 0006504 280.6385 79.4109 15.08694348509824 DTUSAT-2 1 40030U 14033W 23285.58383155 .00010059 00000-0 93810-3 0 9995 2 40030 97.9753 227.7637 0008525 260.7781 99.2474 14.94402091505520 EO-80 1 40032U 14033Y 23285.49188638 .00009274 00000-0 86499-3 0 9998 2 40032 97.9753 227.6868 0008672 263.8771 96.1461 14.94420632505481 HODOYOSHI-1 1 40299U 14070B 23285.76433257 .00021987 00000-0 60954-3 0 9997 2 40299 97.1809 345.5186 0009062 207.7768 152.2994 15.36914843496843 GRIFEX 1 40379U 15003D 23285.69674693 .00095290 00000-0 13572-2 0 9997 2 40379 99.0826 251.9420 0059783 219.1963 140.4949 15.53885495481541 XW-2C 1 40906U 15049H 23285.77124959 .00024377 00000-0 83955-3 0 9998 2 40906 97.4940 293.5715 0013110 105.3684 254.9006 15.29947524446355 XW-2D 1 40907U 15049J 23285.74462822 .00030429 00000-0 96099-3 0 9998 2 40907 97.4912 294.4548 0012212 98.6506 261.6120 15.32707179446466 LILACSAT-2 1 40908U 15049K 23285.76169763 .00011681 00000-0 52192-3 0 9994 2 40908 97.5284 288.6368 0014917 134.6259 225.6195 15.21397476445661 XW-2E 1 40909U 15049L 23285.79439121 .00073793 00000-0 13895-2 0 9994 2 40909 97.4465 302.3070 0008835 70.1155 290.1047 15.48231725447272 XW-2F 1 40910U 15049M 23285.84643570 .00073591 00000-0 14251-2 0 9990 2 40910 97.4561 301.6202 0009645 71.2467 288.9829 15.47414018447010 XW-2B 1 40911U 15049N 23285.76004707 .00030023 00000-0 95699-3 0 9994 2 40911 97.4890 294.8280 0012151 99.9978 260.2636 15.32414145446344 DCBB 1 40912U 15049P 23285.79438797 .00119386 00000-0 15771-2 0 9990 2 40912 97.4055 306.8518 0006300 33.4520 326.7132 15.57934481447821 IO-86 1 40931U 15052B 23285.55990669 .00001948 00000-0 17858-3 0 9993 2 40931 6.0009 328.5831 0012854 160.1417 199.9211 14.77408838434737 ChubuSat-2 1 41338U 16012B 23285.44157264 .00007845 00000-0 53146-3 0 9998 2 41338 31.0020 187.6141 0012504 268.2137 91.7068 15.05083618420055 ChubuSat-3 1 41339U 16012C 23285.11934586 .00007483 00000-0 51015-3 0 9994 2 41339 31.0082 187.0596 0012412 271.5442 88.3773 15.04836135419902 Horyu-4 1 41340U 16012D 23284.95606555 .00015054 00000-0 89829-3 0 9996 2 41340 31.0027 151.2426 0011748 333.6371 26.3669 15.09906851420377 e-st@r-II 1 41459U 16025D 23285.83625266 .00065463 00000-0 14657-2 0 9994 2 41459 98.1690 139.7187 0090511 47.7976 313.0905 15.38928781410930 LO-87 1 41557U 16033B 23285.77372001 .00885267 39000-3 15491-2 0 9995 2 41557 97.3767 40.6273 0005931 302.6197 57.4509 16.02170525412108 Lapan A3 1 41603U 16040E 23285.74793327 .00004929 00000-0 21103-3 0 9991 2 41603 97.1604 305.8939 0010622 259.8489 100.1551 15.23186347405389 Pratham 1 41783U 16059A 23285.64246779 .00001696 00000-0 32819-3 0 9997 2 41783 97.8608 311.4990 0034334 88.7985 271.7152 14.64202043376166 TY-1 1 41844U 16066D 23285.76168402 .00363905 00000-0 17375-2 0 9995 2 41844 97.3529 310.0292 0000978 17.3007 342.8295 15.81857823386050 CAS-2T 1 41847U 16066G 23285.60608094 .00003691 00000-0 55343-3 0 9998 2 41847 98.4931 353.5663 0357776 204.8388 153.5207 14.40133710363705 CAS-4B 1 42759U 17034B 23285.73381175 .00017380 00000-0 80189-3 0 9995 2 42759 43.0150 181.1537 0010343 153.7201 206.4175 15.19918489349509 CAS-4A 1 42761U 17034D 23285.74918706 .00017991 00000-0 82888-3 0 9991 2 42761 43.0135 179.5807 0010996 153.7354 206.4054 15.19942907349518 NIUSat 1 42766U 17036B 23285.64745364 .00059229 00000-0 11385-2 0 9998 2 42766 97.1452 314.8305 0009159 47.0822 313.1196 15.47694796350725 Aalto 1 1 42775U 17036L 23285.64618472 .00036511 00000-0 88355-3 0 9998 2 42775 97.1421 312.6295 0010022 51.1604 309.0537 15.40979354350575 URSA MAIOR 1 42776U 17036M 23285.59296642 .00043841 00000-0 95947-3 0 9993 2 42776 97.1426 314.3384 0009223 47.6912 312.5117 15.43963243350668 Max Valier Sat 1 42778U 17036P 23285.56545203 .00045422 00000-0 93784-3 0 9996 2 42778 97.1411 318.0544 0007850 49.2849 310.9081 15.45686549350816 Pegasus 1 42784U 17036V 23285.65407793 .00127141 00000-0 14186-2 0 9991 2 42784 97.1326 322.5750 0004551 39.6052 320.5538 15.62367250351214 SKCUBE 1 42789U 17036AA 23285.66007887 .00314394 00000-0 17986-2 0 9996 2 42789 97.1230 326.0808 0001987 27.0643 333.0728 15.77983128351442 VENTA 1 1 42791U 17036AC 23285.58241168 .00131956 00000-0 14487-2 0 9996 2 42791 97.1320 323.7631 0003839 45.1561 315.0009 15.62772272351263 Robusta 1B 1 42792U 17036AD 23285.58962786 .01519383 15496-2 19782-2 0 9998 2 42792 97.1115 328.6497 0003740 251.9178 108.1697 16.07422753351622 D-SAT 1 42794U 17036AF 23285.50310141 .00008061 00000-0 62063-3 0 9993 2 42794 97.4739 272.2512 0112034 266.8231 92.0168 14.97008592343479 TechnoSat 1 42829U 17042E 23285.73671474 .00005663 00000-0 53028-3 0 9999 2 42829 97.3832 116.1858 0012962 184.4354 175.6754 14.94362804340045 AO-91 1 43017U 17073E 23285.61190283 .00013745 00000-0 92367-3 0 9993 2 43017 97.6105 165.3336 0228661 41.2915 320.5343 14.87934448318632 AO-92 1 43137U 18004AC 23285.47972869 .00103770 00000-0 13372-2 0 9999 2 43137 97.3169 6.7507 0003435 70.7835 289.3792 15.58668259320498 TianYi 2 1 43155U 18008A 23285.73482438 .00038632 00000-0 12779-2 0 9994 2 43155 97.2842 335.7468 0010134 247.7177 112.2990 15.31188911316600 Zhou Enlai 1 43156U 18008B 23285.74524876 .00046240 00000-0 14703-2 0 9992 2 43156 97.2889 336.0956 0007891 247.4696 112.5712 15.32436666316549 TianYi 6 1 43158U 18008D 23285.71697101 .00030251 00000-0 11183-2 0 9997 2 43158 97.2920 332.3576 0008077 253.9214 106.1136 15.27630890316334 S-Net D 1 43186U 18014G 23285.45214379 .00006998 00000-0 54445-3 0 9998 2 43186 97.6098 186.9776 0015222 131.1085 229.1456 15.01480798311140 S-Net B 1 43187U 18014H 23285.72020352 .00007220 00000-0 56141-3 0 9999 2 43187 97.6106 187.1677 0015609 127.6717 232.5926 15.01482315311186 S-Net A 1 43188U 18014J 23285.72011655 .00007212 00000-0 56079-3 0 9997 2 43188 97.6110 187.2634 0015589 127.9295 232.3341 15.01485513311189 S-Net C 1 43189U 18014K 23285.72287590 .00007285 00000-0 56630-3 0 9994 2 43189 97.6127 187.1579 0016345 122.4691 237.8116 15.01483328309736 CubeBel-1 1 43666U 18083E 23285.75460410 .00086164 00000-0 15945-2 0 9993 2 43666 97.3674 318.7323 0008714 66.5932 293.6234 15.48682606275325 Changshagaoxin 1 43669U 18083H 23285.73968553 .00058849 00000-0 13473-2 0 9998 2 43669 97.3695 312.5519 0007849 70.7555 289.4540 15.42559980275017 Ten-Koh 1 43677U 18084G 23285.40526548 .00005978 00000-0 56761-3 0 9999 2 43677 98.0299 67.6179 0015891 119.3531 240.9277 14.93809150269557 PO-101 1 43678U 18084H 23285.75890980 .00004393 00000-0 41809-3 0 9999 2 43678 98.0399 72.2548 0010528 128.1483 232.0686 14.93924627269819 QO-100 1 43700U 18090A 23285.75685076 .00000149 00000-0 00000+0 0 9999 2 43700 0.0209 191.2363 0001160 25.4719 102.6111 1.00270514 18100 Reaktor Hello World 1 43743U 18096AA 23284.86361226 .00734755 24094-3 16717-2 0 9995 2 43743 97.3009 17.2186 0002451 285.9881 74.1126 15.97515751272489 MinXSS-2 1 43758U 18099A 23285.74269211 .00012192 00000-0 89569-3 0 9991 2 43758 97.5899 347.5250 0019966 85.7976 274.5531 15.03423529265391 AO-95 1 43770U 18099N 23285.72515888 .00010928 00000-0 84901-3 0 9997 2 43770 97.5775 344.2081 0015302 117.2440 243.0346 15.01393843265232 RANGE-B 1 43772U 18099Q 23285.44729160 .00014166 00000-0 10398-2 0 9994 2 43772 97.5631 346.9785 0006690 51.2926 308.8897 15.03560263265270 RANGE-A 1 43773U 18099R 23285.69177268 .00006981 00000-0 57221-3 0 9991 2 43773 97.5493 341.7674 0012963 87.5093 272.7615 14.99496643265163 MOVE-II 1 43780U 18099Y 23285.45532441 .00020402 00000-0 13780-2 0 9996 2 43780 97.5597 347.1273 0009337 112.0550 248.1670 15.06579303265379 SNUSat 2 1 43782U 18099AA 23285.43890842 .00009184 00000-0 72038-3 0 9994 2 43782 97.5566 344.2999 0017624 53.7641 306.5209 15.01043836265212 SnugLite 1 43784U 18099AC 23285.60766851 .00025560 00000-0 19625-2 0 9995 2 43784 97.5350 344.0847 0008202 80.6742 279.5410 15.01715148265280 ITASat 1 1 43786U 18099AE 23285.76342857 .00008449 00000-0 66820-3 0 9997 2 43786 97.5568 345.1498 0020051 98.7891 261.5605 15.00716587265271 EAGLET 1 1 43790U 18099AJ 23285.44631752 .00007241 00000-0 58434-3 0 9993 2 43790 97.5611 345.2166 0016410 95.4541 264.8555 15.00047519264954 ESEO 1 43792U 18099AL 23285.79901931 .00003305 00000-0 28277-3 0 9991 2 43792 97.5583 343.6617 0014466 88.3479 271.9401 14.98193184264996 CSIM 1 43793U 18099AM 23285.71934617 .00019060 00000-0 12746-2 0 9999 2 43793 97.5659 348.8595 0016356 88.3667 271.9434 15.06889266265262 Astrocast 0.1 1 43798U 18099AS 23285.12538235 .00017981 00000-0 12651-2 0 9990 2 43798 97.5734 347.4566 0012419 69.5948 290.6611 15.05055424265347 JO-97 1 43803U 18099AX 23285.39918427 .00011051 00000-0 83582-3 0 9995 2 43803 97.5558 345.0445 0011887 69.9936 290.2567 15.02449215265288 Suomi 100 1 43804U 18099AY 23285.62415072 .00010331 00000-0 78714-3 0 9991 2 43804 97.5689 345.0474 0020077 73.4773 286.8655 15.02082290265315 Al Farabi 2 1 43805U 18099AZ 23285.41537972 .00013720 00000-0 98546-3 0 9993 2 43805 97.5482 345.9855 0013610 67.2293 293.0370 15.04329326265367 CHOMPTT 1 43855U 18104G 23285.44440348 .00058425 00000-0 11138-2 0 9990 2 43855 85.0222 85.9498 0009028 235.1995 124.8412 15.47903752268665 ISAT 1 43879U 18111D 23285.31562980 .00012410 00000-0 89144-3 0 9994 2 43879 97.6323 188.1962 0016479 120.7623 239.5228 15.04318361261930 UWE-4 1 43880U 18111E 23285.73110669 .00012581 00000-0 91062-3 0 9996 2 43880 97.6240 189.1388 0020026 129.0279 231.2733 15.03974211260025 Sparrow 1 43881U 18111F 23285.55970008 .00014377 00000-0 10223-2 0 9992 2 43881 97.6375 189.9325 0011344 159.7475 200.4203 15.04722529262021 Lume 1 1 43908U 18111AJ 23285.73893615 .00091585 00000-0 12001-2 0 9992 2 43908 97.1148 167.9338 0012509 119.5224 240.7282 15.58181435267612 FO-99 1 43937U 19003F 23285.74352990 .00342366 00000-0 17779-2 0 9995 2 43937 97.0670 313.0635 0008152 177.4208 182.7103 15.80041841264403 AstroCast 0.2 1 44083U 19018F 23285.70895397 .00324872 00000-0 18601-2 0 9990 2 44083 97.2460 348.0274 0003237 240.1849 119.9096 15.77933532252739 AISTechSat 3 1 44103U 19018AB 23285.72652053 .00064755 00000-0 11609-2 0 9997 2 44103 97.2370 343.8836 0007099 194.1938 165.9115 15.49691686252650 AISat 1 1 44104U 19018AC 23285.53453156 .00048575 00000-0 74959-3 0 9990 2 44104 97.3731 19.4864 0034504 187.5501 172.5238 15.53294547253890 Prox-1 1 44339U 19036A 23285.64014117 .00013636 00000-0 26623-2 0 9996 2 44339 24.0019 16.8961 0010237 117.9946 242.1584 14.61248471228873 Move-IIb 1 44398U 19038N 23285.76337562 .00214664 00000-0 24108-2 0 9998 2 44398 97.6651 275.7097 0008702 177.6673 182.4626 15.61879931236869 SONATE 1 44400U 19038Q 23285.73821805 .00020306 00000-0 82980-3 0 9998 2 44400 97.6963 266.1096 0016916 260.1886 99.7440 15.24276787236124 BeeSat 9 1 44412U 19038AC 23285.49807173 .00055835 00000-0 15094-2 0 9992 2 44412 97.6828 270.6220 0010007 237.2464 122.7816 15.37486952236134 JAISAT-1 1 44419U 19038F 23285.49275799 .00054121 00000-0 14552-2 0 9997 2 44419 97.6816 271.7384 0009670 231.8183 128.2190 15.37665815236518 Taurus 1 1 44530U 19059C 23285.74789261 .00010045 00000-0 25255-2 0 9995 2 44530 98.5616 35.4917 0013307 95.9824 264.2887 14.51368953215687 Duchifat 3 1 44854U 19089C 23285.79048975 .00017015 00000-0 10675-2 0 9996 2 44854 36.9594 107.3114 0007148 217.0273 142.9979 15.08633742210588 OPS-SAT 1 44878U 19092F 23285.53039784 .00040226 00000-0 95687-3 0 9993 2 44878 97.4688 116.3158 0008486 73.8436 286.3744 15.41495411211820 TO-108 1 44881U 19093C 23285.79115211 .00002228 00000-0 28108-3 0 9990 2 44881 97.8539 2.2124 0015785 57.8095 302.4647 14.82860757206225 FloripaSat 1 1 44885U 19093G 23285.75882444 .00007943 00000-0 89243-3 0 9995 2 44885 97.8621 5.6554 0014272 57.7445 302.5152 14.86927918206413 RS-44 1 44909U 19096E 23285.65090490 .00000033 00000-0 97405-4 0 9999 2 44909 82.5167 269.8851 0216248 272.3832 85.2527 12.79723436177228 BY70-2 1 45857U 20042B 23285.83603417 .00045438 00000-0 39920-2 0 9998 2 45857 97.9189 6.5346 0007375 336.8293 23.2594 14.96373374177090 UPMSat 2 1 46276U 20061E 23285.44370868 .00016722 00000-0 65408-3 0 9998 2 46276 97.3350 350.6767 0000305 66.8630 293.2641 15.25908899172154 AmicalSat 1 46287U 20061R 23285.46011760 .00025529 00000-0 10645-2 0 9992 2 46287 97.3881 349.9428 0002872 62.5293 297.6236 15.23670016171544 SALSAT 1 46495U 20068K 23285.80865816 .00010560 00000-0 66791-3 0 9990 2 46495 97.7817 235.2217 0017026 81.0945 279.2210 15.09082323166801 CAPE 3 1 47309U 21002A 23285.69868216 .00087072 00000-0 13733-2 0 9997 2 47309 60.6727 323.4474 0022086 8.6972 351.4507 15.52703831152457 AO-109 1 47311U 21002C 23285.44247155 .00057402 00000-0 11064-2 0 9995 2 47311 60.6785 325.3808 0019314 9.6971 350.4497 15.47265376152375 ExoCube 2 1 47319U 21002L 23285.77130931 .00056671 00000-0 11345-2 0 9991 2 47319 60.6765 326.8689 0020121 8.6077 351.5362 15.46154257152342 UVSQ-SAT 1 47438U 21006AB 23285.11969186 .00034080 00000-0 12128-2 0 9997 2 47438 97.3708 340.7798 0009371 37.0597 323.1288 15.28846813150482 YUSAT 1 1 47439U 21006AC 23285.42865979 .00042719 00000-0 13386-2 0 9992 2 47439 97.3712 342.4061 0008357 32.4460 327.7294 15.32921122150615 SOMP 2b 1 47445U 21006AJ 23285.43340976 .00029722 00000-0 10888-2 0 9998 2 47445 97.3673 340.1445 0009485 41.3837 318.8119 15.27923481150496 IDEASSat 1 47458U 21006AX 23285.60253245 .00025879 00000-0 97669-3 0 9995 2 47458 97.3768 341.1117 0008884 41.3589 318.8322 15.26973166150498 CubeSX-Sirius-HSE 1 47951U 21022V 23285.80624757 .00021378 00000-0 11051-2 0 9993 2 47951 97.4812 181.3422 0015597 290.8548 69.1014 15.16184133140833 CubeSX-HSE 1 47952U 21022W 23285.77419368 .00020739 00000-0 10702-2 0 9992 2 47952 97.4815 181.3690 0015338 290.3549 69.6036 15.16254987140837 KSU-Cubesat 1 47954U 21022Y 23285.68223848 .00023205 00000-0 11565-2 0 9999 2 47954 97.4817 181.8423 0014557 288.6987 71.2666 15.17463655140572 GRBAlpha 1 47959U 21022AD 23285.75424616 .00019862 00000-0 10227-2 0 9996 2 47959 97.4816 181.4525 0015224 290.8515 69.1087 15.16342506139659 Orbicraft-Zorkiy 1 47960U 21022AE 23285.78191385 .00022414 00000-0 11227-2 0 9993 2 47960 97.4853 182.0973 0014735 288.9231 71.0405 15.17293528140372 STECCO 1 47962U 21022AG 23285.76951248 .00043096 00000-0 16706-2 0 9991 2 47962 97.4821 185.6706 0008086 269.3801 90.6511 15.25977332139936 MO-110 1 47964U 21022AJ 23285.28701220 .00046502 00000-0 17414-2 0 9995 2 47964 97.4834 185.9772 0009799 264.5774 95.4347 15.27091787139906 FEES 1 48082U 21022AL 23285.67873503 .00105238 00000-0 26151-2 0 9994 2 48082 97.4805 189.1722 0004165 220.5890 139.5045 15.39900920139850 TUBIN 1 48900U 21059X 23285.82189845 .00018128 00000-0 79671-3 0 9996 2 48900 97.6155 60.4703 0007761 229.3562 130.6999 15.21936356127059 IT-SPINS 1 49017U 21013G 23285.53280747 .00088443 00000-0 13584-2 0 9994 2 49017 51.5878 219.3775 0006823 73.8843 286.2897 15.53491738127876 LEDSAT 1 49069U 21073D 23285.73414653 .00017039 00000-0 86658-3 0 9990 2 49069 97.4717 354.7263 0024000 74.3282 286.0597 15.16655827118707 CUTE 1 49263U 21088D 23285.46623764 .00018612 00000-0 11066-2 0 9995 2 49263 97.5328 349.3515 0016291 216.6816 143.3300 15.11203860111980 TeikyoSat 4 1 49396U 21102B 23285.81000721 .00004054 00000-0 30652-3 0 9998 2 49396 97.5015 334.1128 0014655 47.0050 313.2401 15.02815064105438 Z-Sat 1 49399U 21102E 23285.81356283 .00006654 00000-0 46069-3 0 9995 2 49399 97.4721 335.2820 0022288 32.1937 328.0645 15.05782588105582 KOSEN 1 1 49402U 21102H 23285.67344663 .00008289 00000-0 54208-3 0 9993 2 49402 97.4649 335.8816 0020834 20.8438 339.3635 15.07853565105650 HO-113 1 50466U 21131B 23285.81870024 .00001372 00000-0 45774-3 0 9992 2 50466 98.5461 6.9749 0005012 139.0243 221.1322 14.39111725 94270 Tevel-3 1 50988U 22002E 23285.75524393 .00042548 00000-0 14118-2 0 9994 2 50988 97.4209 352.2748 0006970 170.9107 189.2261 15.31092727 96710 Tevel-8 1 50989U 22002F 23285.77950054 .00043052 00000-0 14317-2 0 9996 2 50989 97.4228 352.3706 0006974 169.8820 190.2563 15.31017924 96713 Tevel-5 1 50998U 22002Q 23285.75832803 .00045864 00000-0 14685-2 0 9996 2 50998 97.4204 352.8210 0007945 166.1525 193.9936 15.32216380 96759 Tevel-6 1 50999U 22002R 23285.75704045 .00045583 00000-0 14600-2 0 9998 2 50999 97.4202 352.8114 0007969 165.9854 194.1610 15.32206392 96753 Tevel-1 1 51013U 22002AF 23285.76910848 .00042834 00000-0 14238-2 0 9990 2 51013 97.4202 352.2100 0006892 170.7678 189.3691 15.31034417 96719 NO-116 1 51031U 22002AZ 23285.17959417 .00108478 00000-0 22397-2 0 9992 2 51031 97.4311 356.6321 0006774 170.4708 189.6671 15.45427911 96882 IRIS-A 1 51044U 22002BN 23285.40499373 .00019422 00000-0 84798-3 0 9996 2 51044 97.4225 349.1885 0007682 180.7415 179.3811 15.22141987 96478 Tevel-7 1 51062U 22002CG 23285.77860799 .00043436 00000-0 14429-2 0 9995 2 51062 97.4222 352.3402 0006960 169.5799 190.5587 15.31050946 96710 Tevel-4 1 51063U 22002CH 23285.78975513 .00043736 00000-0 14566-2 0 9993 2 51063 97.4221 352.3203 0006980 169.4699 190.6689 15.30966500 96714 Tevel-2 1 51069U 22002CP 23285.75654732 .00042685 00000-0 14159-2 0 9993 2 51069 97.4207 352.2443 0006914 170.8580 189.2788 15.31102881 96710 DELFI-PQ 1 51074U 22002CU 23285.51059791 .00147789 00000-0 24426-2 0 9996 2 51074 97.4445 0.3632 0006831 193.3359 166.7714 15.51677420 97081 SO-115 1 51080U 22002DA 23285.44192850 .00054879 00000-0 15542-2 0 9995 2 51080 97.4490 356.9130 0008858 198.2676 161.8251 15.36052991 96846 SO-114 1 51081U 22002DB 23285.67288503 .00057868 00000-0 16195-2 0 9998 2 51081 97.4480 357.1459 0008953 197.7285 162.3647 15.36408607 96887 OreSat0 1 52017U 22026K 23285.52984640 .00035685 00000-0 12189-2 0 9995 2 52017 97.5105 288.6715 0021138 37.7310 322.5407 15.30000817 87459 Planetum 1 1 52738U 22057G 23285.82719223 .00028884 00000-0 11754-2 0 9995 2 52738 97.5481 42.1188 0006008 301.7942 58.2710 15.24455815 76551 Foresail-1 1 52766U 22057AL 23285.58578080 .00019931 00000-0 86678-3 0 9994 2 52766 97.5612 42.7071 0010449 282.6581 77.3486 15.22251151 76529 SNUGLITE 2 1 52899U 22065F 23285.38594584 .00003170 00000-0 67428-3 0 9995 2 52899 98.0861 67.1078 0007391 202.5099 157.5778 14.59692130 67950 CTIM 1 52950U 22074G 23285.77276447 .00217921 00000-0 23135-2 0 9998 2 52950 44.9986 54.7087 0015221 300.1786 59.7602 15.62520557 71858 IO-117 1 53106U 22080B 23284.00607016 -.00000003 00000-0 00000-0 0 9990 2 53106 70.1389 279.4666 0008424 164.5168 195.5750 6.42557237 29198 SelfieSat 1 53951U 22057BC 23285.82102510 .00039863 00000-0 14799-2 0 9999 2 53951 97.5525 43.2191 0007780 291.1151 68.9256 15.27433501 76606 FO-118 1 54684U 22167C 23285.80222894 .00025885 00000-0 12905-2 0 9997 2 54684 97.5777 62.9379 0012145 290.8519 69.1413 15.17458981 46490 SSS-2B 1 56184U 23054G 23285.74731778 .00028220 00000-0 10832-2 0 9992 2 56184 97.3934 179.2539 0009553 357.0312 3.0868 15.26387726 28080 CIRBE 1 56188U 23054L 23285.27172572 .00037851 00000-0 13880-2 0 9991 2 56188 97.3891 178.8608 0008190 353.6394 6.4740 15.27848342 28023 INSPIRE-Sat 7 1 56211U 23054AK 23285.52778123 .00037046 00000-0 12728-2 0 9996 2 56211 97.3909 179.6407 0011237 328.5136 31.5430 15.29958577 28093 RoseyCubesat 1 1 56212U 23054AL 23285.75292732 .00040630 00000-0 13689-2 0 9999 2 56212 97.3916 179.9641 0011239 327.0699 32.9840 15.30572056 28136 ARKSAT 1 1 56311U 98067VC 23285.72128572 .00477829 96955-4 15861-2 0 9998 2 56311 51.6266 88.9513 0007667 262.1457 97.8678 15.89707908 26806 Ex-Alta 2 1 56313U 98067VE 23285.44981830 .00530532 11963-3 16531-2 0 9994 2 56313 51.6216 90.0995 0007866 260.7921 99.2196 15.90935551 26789 NEUDOSE 1 56315U 98067VG 23285.50618326 .00219981 00000-0 13962-2 0 9994 2 56315 51.6283 95.0492 0005430 216.9021 143.1606 15.75285382 26701 YukonSat 1 56316U 98067VH 23285.73301417 .00328820 00000-0 15179-2 0 9995 2 56316 51.6283 91.2910 0005852 234.7501 125.2954 15.82051529 26792 URESAT-1 1 56992U 23084BU 23285.55256765 .00027046 00000-0 14388-2 0 9994 2 56992 97.5157 40.3254 0017239 171.5853 188.5672 15.15094286 18396 MRC-100 1 56993U 23084BV 23285.54836877 .00030090 00000-0 15897-2 0 9991 2 56993 97.5163 40.3411 0017088 172.4020 187.7474 15.15318823 18406 UmKA 1 (RS40S) 1 57172U 23091G 23285.81048207 .00007979 00000-0 57500-3 0 9999 2 57172 97.6531 335.4569 0016427 243.9690 115.9845 15.04325731 16116 CubeBel-2 (EU11S) 1 57175U 23091K 23285.78095745 .00009018 00000-0 65553-3 0 9990 2 57175 97.6509 335.3366 0015029 257.5328 102.4216 15.03978146 16109 /EX